Powrót do katalogu

SL-12 DEB

LostHEO
NORAD 35307·DEBRIS·🇷🇺 Russia

Wystrzelony Apr 4, 1991 z Baikonur Cosmodrome

Loading…

Następne Przeloty (najbliższe 24 godziny)

TLE

NieaktualneSource: Space-Track

Epoka: Jun 24, 2011, 01:42 UTC

1 35307U 91025AG  11175.07150852  .00003478  00000-0  15834-1 0  9992
2 35307  65.1213 203.4950 5481019 341.4343   8.4239  4.52056668 36581

Śledź SL-12 DEB w czasie rzeczywistym z AllMySat

Download on the App Store